SCP
0 0 0 0 0 -0 -0 -0 -0 -0 -0 -0 0 -0 0 -0 -0 -0 -0 -0 -0 -0 -0 -0 -0 -0 -0 -0 -0 -0 -0 -0 -0 -0 -0 -0 -0 -0 -0 0 -0 -0 -0
0 0 0 0 0 -0 -0 -0 -0 -0 -0 -0 0 0 0 -0 -0 -0 -0 -0 -0 -0 -0 -0 -0 -0 -0 -0 -0 -0 -0 -0 -0 0 -0 -0 -0 -0 -0 -0 -1 -0 -0
-0 -0 -0 -0 -0 0 -0 -0 -0 -0 -0 0 0 0 -0 0 0 0 -0 -0 -0 -0 0 -0 -0 -0 -0 -0 -0 -0 -0 -0 0 -0 0 0 -0 0 0 -0 -0 -0 -0
-0 -0 -0 -0 0 0 -0 0 -0 -0 -0 0 0 -0 -0 0 0 0 0 0 0 0 0 0 -0 -0 -0 -0 -0 -0 0 -0 0 0 0 0 -0 0 -0 -0 -0 -0 -0
-0 -0 -0 -0 -0 0 0 -0 -0 -0 -0 0 0 0 -0 0 0 0 0 -0 0 -0 -0 -0 -0 -0 -0 0 0 0 0 0 0 0 0 0 -0 -0 -0 0 -0 -0 -0
-0 -0 -0 -0 -0 0 0 -0 -0 -0 0 0 0 0 0 -0 0 0 -0 -0 0 0 -0 0 0 0 0 0 0 0 0 0 0 0 0 0 -0 0 0 0 0 -0 0
-0 -0 -0 -0 -0 0 0 -0 -0 -0 0 0 0 0 0 -0 0 -0 -0 -0 -0 0 -0 0 0 0 0 0 0 0 0 0 0 0 -0 -0 -0 0 0 0 -0 -0 0
-0 -0 0 0 -0 -0 -0 0 0 0 0 0 0 0 0 0 0 -0 -0 -0 -0 -0 -0 -0 0 0 0 0 0 0 0 0 0 0 -0 -0 0 0 0 0 0 0 0
0 0 0 -0 -0 0 0 -0 0 0 0 0 0 0 0 0 0 -0 -0 -0 -0 -0 0 0 0 0 0 0 0 0 0 0 0 -0 0 0 0 0 0 0 1 0 0
0 -0 -0 -0 -0 -0 0 0 0 0 0 0 0 0 0 0 0 -0 -0 0 -0 0 0 0 0 0 0 0 0 0 0 0 0 0 0 0 0 0 0 0 1 0 0
0 -0 -0 0 0 0 0 0 0 0 0 0 0 0 0 0 0 0 0 0 0 0 0 0 0 0 0 0 0 0 0 0 0 0 0 0 0 0 0 0 1 1 0
-0 0 -0 -0 0 0 0 0 0 0 0 0 0 0 0 0 0 0 0 0 0 0 0 0 0 0 0 0 0 0 0 0 0 0 0 0 0 0 0 0 1 0 0
-0 -0 0 0 0 0 0 0 0 0 0 0 0 0 0 0 0 0 0 0 0 0 0 0 0 0 0 0 0 0 0 0 0 0 0 0 0 0 0 0 1 0 0
-0 -0 0 -0 0 0 0 0 0 0 0 0 0 0 0 0 0 0 0 0 0 0 0 0 0 0 0 0 0 0 0 0 0 0 0 0 0 0 0 0 1 0 0
-0 -0 -0 -0 0 0 0 0 0 0 0 0 0 0 0 0 0 0 0 0 0 0 0 0 0 0 0 0 0 0 0 0 0 -0 -0 0 0 0 0 0 0 0 0
-0 -0 -0 -0 0 0 0 0 0 0 0 0 0 0 0 0 0 0 0 0 0 0 0 0 0 0 0 0 -0 -0 0 -0 0 0 0 0 0 0 0 0 0 0 0
0 -0 -0 0 0 0 0 0 0 0 0 0 0 0 0 0 0 0 0 0 0 0 0 0 0 0 0 0 -0 0 -0 -0 -0 0 0 0 0 0 0 0 0 0 0
-0 -0 -0 0 -0 0 0 0 0 0 0 0 0 0 0 0 0 0 0 0 0 0 0 0 0 0 0 0 -0 0 0 0 0 0 0 0 0 0 0 0 0 0 0
-0 -0 -0 0 -0 0 0 0 0 0 0 0 0 0 0 0 0 0 0 0 0 0 0 0 0 0 -0 0 0 0 0 0 0 -0 -0 0 0 0 0 -0 0 0 0
-0 -0 -0 -0 0 0 0 0 0 0 0 0 0 0 0 0 0 0 0 0 0 0 0 0 0 0 -0 -0 0 0 0 0 0 -0 0 0 0 0 0 0 0 0 0
-0 -0 -0 0 0 0 0 0 0 0 0 0 0 0 0 0 0 0 0 0 0 0 0 0 0 0 -0 -0 0 0 0 0 0 0 0 0 0 0 0 0 0 0 0
-0 -0 -0 -0 0 0 0 0 0 0 0 0 0 0 0 0 0 0 0 0 0 0 0 0 0 -0 -0 -0 -0 -0 -0 0 0 -0 -0 0 0 0 0 0 0 0 0
-0 -0 -0 -0 0 0 0 0 0 0 0 0 -0 -0 -0 0 0 0 0 0 0 0 0 0 0 0 0 -0 0 0 0 -0 -0 0 -0 -0 0 0 0 -0 0 0 0
-0 -0 -0 -0 -0 0 0 0 0 0 0 0 -0 0 -0 0 0 0 0 0 0 0 0 0 0 0 -0 0 0 -0 -0 -0 0 -0 0 0 -0 -0 -0 0 0 0 0
-0 -0 -0 -0 -0 -0 0 0 0 0 0 -0 -0 0 0 0 0 0 0 0 0 0 0 0 0 0 0 -0 0 -0 -0 -0 -0 0 0 -0 0 -0 -0 -0 -0 0 0
0 -0 -0 -0 -0 -0 0 0 0 0 0 0 0 -0 0 -0 0 0 0 -0 0 0 0 0 0 0 0 0 0 -0 -0 0 -0 -0 0 -0 0 -0 0 0 -0 0 0
Wind_Speed_500mb
25 19 24 22 21 23 23 18 17 20 22 23 21 20 19 19 19 20 21 21 19 19 20 21 18 20 19 19 22 24 27 28 29 25 23 22 20 17 18 25 22 12 15
29 22 26 24 22 23 23 21 20 20 23 24 21 16 20 21 22 23 24 21 18 19 19 19 20 18 21 28 30 31 28 26 26 27 29 20 17 17 18 19 18 14 13
27 25 25 24 30 27 25 25 26 26 24 26 24 20 20 23 24 26 27 23 23 23 23 21 20 22 29 27 26 26 25 25 26 27 36 15 14 18 16 14 13 13 12
25 29 24 26 25 26 24 26 29 31 31 31 22 20 22 23 28 28 30 26 27 25 26 25 29 29 32 31 29 26 25 23 23 32 18 16 12 18 17 18 16 15 13
25 21 24 25 28 29 25 29 33 32 33 32 24 17 23 27 30 30 30 28 28 29 29 31 30 30 28 26 23 21 20 19 25 24 15 17 15 12 18 16 17 13 7
26 20 19 18 21 29 32 35 34 37 36 33 30 18 27 31 30 30 29 28 28 30 30 28 27 25 25 23 23 20 21 20 27 12 16 18 13 18 17 17 13 10 15
26 21 23 22 19 35 37 36 30 34 33 31 23 22 29 32 30 28 28 27 28 30 26 24 27 25 24 21 21 20 20 23 17 17 14 16 13 18 19 16 17 20 30
29 26 26 19 19 39 36 22 40 35 30 30 21 21 24 28 26 27 26 26 28 27 24 25 25 23 21 22 21 20 23 26 16 17 18 15 17 17 14 12 12 18 41
35 34 34 32 40 46 45 42 32 29 26 27 24 24 26 23 25 26 26 27 27 24 21 21 20 19 20 21 21 21 23 22 16 14 14 12 15 12 10 13 17 28 33
28 27 28 22 25 33 41 37 32 22 26 24 25 18 22 24 25 26 23 27 24 20 19 18 18 18 19 19 19 21 20 21 9 8 8 5 10 8 10 18 13 31 31
26 25 26 28 24 26 23 23 18 14 17 17 16 23 25 16 20 19 24 27 24 21 18 15 16 17 15 14 14 13 17 5 3 1 2 1 6 9 14 17 16 26 36
26 25 24 23 26 19 16 20 18 17 13 16 15 18 19 20 22 19 24 25 24 23 21 18 16 14 15 4 9 11 10 3 1 3 2 4 10 16 20 22 22 23 23
29 22 21 27 27 19 19 19 12 15 12 12 16 17 18 17 17 19 19 18 16 21 12 11 9 10 3 4 1 1 4 4 3 4 3 8 13 17 20 23 27 24 19
29 26 24 18 28 23 16 18 20 18 18 16 17 19 16 15 17 19 18 17 15 9 10 9 5 5 3 2 1 2 4 4 5 5 10 12 15 19 23 26 27 19 15
27 25 25 23 22 21 22 20 21 18 17 14 14 18 15 16 16 16 15 11 10 7 7 5 4 4 5 6 4 4 5 7 7 9 9 20 22 23 25 25 26 17 14
24 25 24 23 22 22 22 27 21 20 17 15 15 15 19 14 13 14 12 8 6 5 5 3 1 3 2 2 6 7 7 7 11 13 13 18 25 22 21 19 18 18 14
22 23 22 23 23 26 28 24 18 17 14 14 12 17 18 14 15 15 10 8 5 7 7 1 3 7 6 6 8 8 7 9 8 12 15 17 19 28 21 11 11 13 12
23 23 22 21 23 24 23 19 15 13 13 11 9 10 13 14 17 11 7 3 3 3 2 3 4 5 7 5 5 6 9 11 16 15 15 18 16 15 14 5 11 10 10
23 25 24 23 23 24 28 16 15 15 13 9 11 11 8 11 14 11 6 1 1 2 2 3 5 5 7 7 9 13 15 14 15 14 19 19 16 11 8 8 13 13 9
22 24 25 24 24 25 22 26 17 16 11 10 9 8 8 6 12 11 5 3 4 4 3 3 1 5 8 12 12 16 18 16 15 9 11 12 8 14 7 11 9 9 11
22 25 28 30 28 27 22 21 19 16 14 11 9 6 6 9 11 11 6 4 4 4 8 6 5 9 8 15 17 16 18 14 7 6 6 8 7 8 9 10 12 12 14
26 26 27 29 34 34 25 23 19 17 16 14 12 11 8 10 11 9 7 8 4 5 13 14 12 8 12 15 15 18 12 1 9 6 9 10 6 5 4 7 7 12 12
31 29 29 29 35 34 27 26 27 18 18 14 15 14 12 10 10 8 6 10 12 3 4 11 7 8 6 12 15 8 12 13 8 3 6 10 13 6 3 5 2 9 13
34 29 29 29 35 34 32 24 25 22 19 15 13 13 13 12 11 8 4 3 14 10 7 4 2 1 4 7 10 8 7 7 11 5 3 7 10 9 6 6 4 1 12
35 33 32 31 33 35 38 32 28 27 20 19 16 15 16 13 11 9 5 3 7 7 8 4 1 2 5 4 7 7 10 9 8 8 15 14 5 9 6 9 3 2 5
36 35 36 35 33 35 34 38 36 27 24 23 17 16 14 13 12 14 9 6 6 7 6 6 5 7 5 9 6 6 8 9 9 9 12 11 10 7 6 8 6 2 2
Wind_Direction_500mb
167 152 157 146 132 121 117 127 134 139 141 140 137 135 141 139 136 138 136 130 128 128 123 118 115 112 110 93 90 85 88 87 90 89 87 89 88 91 91 92 75 79 93
167 145 154 143 138 132 124 129 127 129 138 136 123 126 131 130 128 131 130 121 125 134 141 131 121 116 104 103 97 94 94 92 89 88 80 69 85 87 87 99 120 90 92
146 147 147 149 149 134 133 136 127 122 117 125 119 133 131 127 122 120 121 117 124 127 128 124 117 108 109 106 97 93 90 90 88 84 82 88 80 81 83 81 74 66 60
141 133 131 157 147 147 136 138 130 123 113 108 115 129 132 132 126 123 124 119 118 117 118 119 112 108 106 100 96 92 88 88 87 78 74 86 72 74 76 71 67 67 63
128 132 148 152 154 142 135 134 127 120 120 115 112 126 135 133 128 122 124 121 117 117 117 114 109 107 104 96 86 76 73 76 77 71 75 104 80 55 73 77 53 58 85
134 132 142 153 150 146 142 129 124 121 116 117 106 129 132 127 126 127 125 123 124 125 120 114 115 108 100 85 75 73 73 81 77 97 90 81 101 74 72 71 71 42 35
126 130 126 120 140 167 144 136 129 128 120 112 112 127 125 127 129 130 127 130 129 124 119 118 112 103 89 75 75 78 82 87 95 96 87 94 81 75 64 53 46 33 6
125 120 111 112 101 163 161 162 134 122 120 118 117 111 126 127 130 132 126 132 132 128 118 117 107 96 85 81 80 82 85 94 78 88 100 91 82 71 60 42 33 348 350
130 116 109 106 93 128 134 128 125 119 110 119 120 119 133 134 139 132 132 132 130 127 123 118 105 96 91 87 85 88 90 94 77 104 94 95 102 84 54 30 10 0 350
117 120 122 111 100 97 115 119 119 121 112 119 108 130 123 125 125 119 125 130 132 137 133 121 113 104 102 95 90 87 90 80 90 100 84 130 101 70 39 34 21 10 352
137 133 119 112 105 114 111 119 126 115 116 128 142 131 93 122 114 112 148 129 135 137 135 131 117 115 108 88 83 79 92 90 121 128 94 62 51 18 14 8 346 345 353
148 148 159 143 145 136 143 146 153 152 164 147 143 144 134 142 148 137 124 118 115 113 112 113 111 110 88 85 18 60 61 247 64 252 272 332 20 6 360 350 343 336 352
155 157 161 159 143 159 166 152 136 153 145 165 149 133 150 129 122 124 119 109 107 109 102 90 88 69 164 132 83 32 274 294 294 289 230 19 18 7 354 343 336 329 340
157 163 155 170 147 160 160 147 159 154 153 152 162 139 137 128 130 134 133 123 110 114 123 113 116 132 54 0 120 239 292 276 280 273 303 346 355 348 345 340 348 347 355
162 165 162 164 161 163 157 158 151 154 142 148 134 141 132 135 143 126 131 117 123 99 125 111 99 97 47 32 16 325 281 268 278 313 323 328 341 336 337 341 353 25 50
170 166 167 162 166 164 165 155 156 151 150 136 138 144 141 137 147 130 111 110 86 112 142 126 125 105 11 24 336 339 328 289 293 311 312 326 339 334 336 347 25 37 62
175 174 174 167 167 167 164 153 156 149 149 140 141 138 144 140 155 126 117 92 92 140 155 38 354 314 311 312 317 345 323 327 325 325 331 328 332 336 344 345 29 35 60
179 177 173 167 171 170 173 165 168 173 154 151 148 150 149 152 165 142 114 93 117 100 70 342 351 325 327 321 296 305 302 319 319 327 334 337 333 342 354 34 32 39 56
186 184 178 175 171 173 182 176 174 186 170 170 155 153 166 161 161 167 176 320 20 321 356 7 327 28 355 333 317 315 304 298 308 310 327 343 337 25 48 38 41 41 55
195 189 187 181 181 179 187 187 185 189 185 182 182 198 188 177 181 182 205 296 276 301 281 321 353 358 352 333 317 305 304 299 299 313 337 354 353 40 44 55 46 15 34
197 194 193 195 195 188 185 190 194 186 196 188 191 202 194 203 202 186 195 281 246 226 225 246 276 319 324 333 332 327 318 321 322 332 357 7 348 27 48 51 58 65 2
203 200 204 200 209 206 202 198 194 198 200 200 205 214 204 203 201 209 242 235 232 242 258 233 248 300 321 335 330 321 330 273 49 43 30 24 12 25 38 45 49 45 61
206 205 208 211 208 208 202 199 204 204 199 210 211 224 232 224 214 226 271 250 232 309 243 223 255 299 319 338 347 0 330 10 330 352 14 8 29 16 16 9 58 34 28
205 204 208 215 210 208 206 198 197 198 206 209 198 204 206 215 216 250 304 313 206 196 199 231 257 248 337 328 338 353 341 6 353 326 253 334 11 14 26 7 325 10 3
203 202 200 207 212 200 216 205 213 198 221 210 202 209 196 223 223 226 209 130 158 166 198 191 58 320 331 358 325 324 313 315 328 326 320 340 340 16 9 14 339 174 358
202 199 199 207 213 210 217 223 219 210 204 208 215 209 211 222 227 220 214 208 188 193 217 248 266 299 265 293 305 311 304 308 313 307 306 307 320 351 344 357 21 231 330
Wind_Speed_850mb
25 19 24 22 21 23 23 18 17 20 22 23 21 20 19 19 19 20 21 21 19 19 20 21 18 20 19 19 22 24 27 28 29 25 23 22 20 17 18 25 22 12 15
29 22 26 24 22 23 23 21 20 20 23 24 21 16 20 21 22 23 24 21 18 19 19 19 20 18 21 28 30 31 28 26 26 27 29 20 17 17 18 19 18 14 13
27 25 25 24 30 27 25 25 26 26 24 26 24 20 20 23 24 26 27 23 23 23 23 21 20 22 29 27 26 26 25 25 26 27 36 15 14 18 16 14 13 13 12
25 29 24 26 25 26 24 26 29 31 31 31 22 20 22 23 28 28 30 26 27 25 26 25 29 29 32 31 29 26 25 23 23 32 18 16 12 18 17 18 16 15 13
25 21 24 25 28 29 25 29 33 32 33 32 24 17 23 27 30 30 30 28 28 29 29 31 30 30 28 26 23 21 20 19 25 24 15 17 15 12 18 16 17 13 7
26 20 19 18 21 29 32 35 34 37 36 33 30 18 27 31 30 30 29 28 28 30 30 28 27 25 25 23 23 20 21 20 27 12 16 18 13 18 17 17 13 10 15
26 21 23 22 19 35 37 36 30 34 33 31 23 22 29 32 30 28 28 27 28 30 26 24 27 25 24 21 21 20 20 23 17 17 14 16 13 18 19 16 17 20 30
29 26 26 19 19 39 36 22 40 35 30 30 21 21 24 28 26 27 26 26 28 27 24 25 25 23 21 22 21 20 23 26 16 17 18 15 17 17 14 12 12 18 41
35 34 34 32 40 46 45 42 32 29 26 27 24 24 26 23 25 26 26 27 27 24 21 21 20 19 20 21 21 21 23 22 16 14 14 12 15 12 10 13 17 28 33
28 27 28 22 25 33 41 37 32 22 26 24 25 18 22 24 25 26 23 27 24 20 19 18 18 18 19 19 19 21 20 21 9 8 8 5 10 8 10 18 13 31 31
26 25 26 28 24 26 23 23 18 14 17 17 16 23 25 16 20 19 24 27 24 21 18 15 16 17 15 14 14 13 17 5 3 1 2 1 6 9 14 17 16 26 36
26 25 24 23 26 19 16 20 18 17 13 16 15 18 19 20 22 19 24 25 24 23 21 18 16 14 15 4 9 11 10 3 1 3 2 4 10 16 20 22 22 23 23
29 22 21 27 27 19 19 19 12 15 12 12 16 17 18 17 17 19 19 18 16 21 12 11 9 10 3 4 1 1 4 4 3 4 3 8 13 17 20 23 27 24 19
29 26 24 18 28 23 16 18 20 18 18 16 17 19 16 15 17 19 18 17 15 9 10 9 5 5 3 2 1 2 4 4 5 5 10 12 15 19 23 26 27 19 15
27 25 25 23 22 21 22 20 21 18 17 14 14 18 15 16 16 16 15 11 10 7 7 5 4 4 5 6 4 4 5 7 7 9 9 20 22 23 25 25 26 17 14
24 25 24 23 22 22 22 27 21 20 17 15 15 15 19 14 13 14 12 8 6 5 5 3 1 3 2 2 6 7 7 7 11 13 13 18 25 22 21 19 18 18 14
22 23 22 23 23 26 28 24 18 17 14 14 12 17 18 14 15 15 10 8 5 7 7 1 3 7 6 6 8 8 7 9 8 12 15 17 19 28 21 11 11 13 12
23 23 22 21 23 24 23 19 15 13 13 11 9 10 13 14 17 11 7 3 3 3 2 3 4 5 7 5 5 6 9 11 16 15 15 18 16 15 14 5 11 10 10
23 25 24 23 23 24 28 16 15 15 13 9 11 11 8 11 14 11 6 1 1 2 2 3 5 5 7 7 9 13 15 14 15 14 19 19 16 11 8 8 13 13 9
22 24 25 24 24 25 22 26 17 16 11 10 9 8 8 6 12 11 5 3 4 4 3 3 1 5 8 12 12 16 18 16 15 9 11 12 8 14 7 11 9 9 11
22 25 28 30 28 27 22 21 19 16 14 11 9 6 6 9 11 11 6 4 4 4 8 6 5 9 8 15 17 16 18 14 7 6 6 8 7 8 9 10 12 12 14
26 26 27 29 34 34 25 23 19 17 16 14 12 11 8 10 11 9 7 8 4 5 13 14 12 8 12 15 15 18 12 1 9 6 9 10 6 5 4 7 7 12 12
31 29 29 29 35 34 27 26 27 18 18 14 15 14 12 10 10 8 6 10 12 3 4 11 7 8 6 12 15 8 12 13 8 3 6 10 13 6 3 5 2 9 13
34 29 29 29 35 34 32 24 25 22 19 15 13 13 13 12 11 8 4 3 14 10 7 4 2 1 4 7 10 8 7 7 11 5 3 7 10 9 6 6 4 1 12
35 33 32 31 33 35 38 32 28 27 20 19 16 15 16 13 11 9 5 3 7 7 8 4 1 2 5 4 7 7 10 9 8 8 15 14 5 9 6 9 3 2 5
36 35 36 35 33 35 34 38 36 27 24 23 17 16 14 13 12 14 9 6 6 7 6 6 5 7 5 9 6 6 8 9 9 9 12 11 10 7 6 8 6 2 2
Wind_Direction_850mb
167 152 157 146 132 121 117 127 134 139 141 140 137 135 141 139 136 138 136 130 128 128 123 118 115 112 110 93 90 85 88 87 90 89 87 89 88 91 91 92 75 79 93
167 145 154 143 138 132 124 129 127 129 138 136 123 126 131 130 128 131 130 121 125 134 141 131 121 116 104 103 97 94 94 92 89 88 80 69 85 87 87 99 120 90 92
146 147 147 149 149 134 133 136 127 122 117 125 119 133 131 127 122 120 121 117 124 127 128 124 117 108 109 106 97 93 90 90 88 84 82 88 80 81 83 81 74 66 60
141 133 131 157 147 147 136 138 130 123 113 108 115 129 132 132 126 123 124 119 118 117 118 119 112 108 106 100 96 92 88 88 87 78 74 86 72 74 76 71 67 67 63
128 132 148 152 154 142 135 134 127 120 120 115 112 126 135 133 128 122 124 121 117 117 117 114 109 107 104 96 86 76 73 76 77 71 75 104 80 55 73 77 53 58 85
134 132 142 153 150 146 142 129 124 121 116 117 106 129 132 127 126 127 125 123 124 125 120 114 115 108 100 85 75 73 73 81 77 97 90 81 101 74 72 71 71 42 35
126 130 126 120 140 167 144 136 129 128 120 112 112 127 125 127 129 130 127 130 129 124 119 118 112 103 89 75 75 78 82 87 95 96 87 94 81 75 64 53 46 33 6
125 120 111 112 101 163 161 162 134 122 120 118 117 111 126 127 130 132 126 132 132 128 118 117 107 96 85 81 80 82 85 94 78 88 100 91 82 71 60 42 33 348 350
130 116 109 106 93 128 134 128 125 119 110 119 120 119 133 134 139 132 132 132 130 127 123 118 105 96 91 87 85 88 90 94 77 104 94 95 102 84 54 30 10 0 350
117 120 122 111 100 97 115 119 119 121 112 119 108 130 123 125 125 119 125 130 132 137 133 121 113 104 102 95 90 87 90 80 90 100 84 130 101 70 39 34 21 10 352
137 133 119 112 105 114 111 119 126 115 116 128 142 131 93 122 114 112 148 129 135 137 135 131 117 115 108 88 83 79 92 90 121 128 94 62 51 18 14 8 346 345 353
148 148 159 143 145 136 143 146 153 152 164 147 143 144 134 142 148 137 124 118 115 113 112 113 111 110 88 85 18 60 61 247 64 252 272 332 20 6 360 350 343 336 352
155 157 161 159 143 159 166 152 136 153 145 165 149 133 150 129 122 124 119 109 107 109 102 90 88 69 164 132 83 32 274 294 294 289 230 19 18 7 354 343 336 329 340
157 163 155 170 147 160 160 147 159 154 153 152 162 139 137 128 130 134 133 123 110 114 123 113 116 132 54 0 120 239 292 276 280 273 303 346 355 348 345 340 348 347 355
162 165 162 164 161 163 157 158 151 154 142 148 134 141 132 135 143 126 131 117 123 99 125 111 99 97 47 32 16 325 281 268 278 313 323 328 341 336 337 341 353 25 50
170 166 167 162 166 164 165 155 156 151 150 136 138 144 141 137 147 130 111 110 86 112 142 126 125 105 11 24 336 339 328 289 293 311 312 326 339 334 336 347 25 37 62
175 174 174 167 167 167 164 153 156 149 149 140 141 138 144 140 155 126 117 92 92 140 155 38 354 314 311 312 317 345 323 327 325 325 331 328 332 336 344 345 29 35 60
179 177 173 167 171 170 173 165 168 173 154 151 148 150 149 152 165 142 114 93 117 100 70 342 351 325 327 321 296 305 302 319 319 327 334 337 333 342 354 34 32 39 56
186 184 178 175 171 173 182 176 174 186 170 170 155 153 166 161 161 167 176 320 20 321 356 7 327 28 355 333 317 315 304 298 308 310 327 343 337 25 48 38 41 41 55
195 189 187 181 181 179 187 187 185 189 185 182 182 198 188 177 181 182 205 296 276 301 281 321 353 358 352 333 317 305 304 299 299 313 337 354 353 40 44 55 46 15 34
197 194 193 195 195 188 185 190 194 186 196 188 191 202 194 203 202 186 195 281 246 226 225 246 276 319 324 333 332 327 318 321 322 332 357 7 348 27 48 51 58 65 2
203 200 204 200 209 206 202 198 194 198 200 200 205 214 204 203 201 209 242 235 232 242 258 233 248 300 321 335 330 321 330 273 49 43 30 24 12 25 38 45 49 45 61
206 205 208 211 208 208 202 199 204 204 199 210 211 224 232 224 214 226 271 250 232 309 243 223 255 299 319 338 347 0 330 10 330 352 14 8 29 16 16 9 58 34 28
205 204 208 215 210 208 206 198 197 198 206 209 198 204 206 215 216 250 304 313 206 196 199 231 257 248 337 328 338 353 341 6 353 326 253 334 11 14 26 7 325 10 3
203 202 200 207 212 200 216 205 213 198 221 210 202 209 196 223 223 226 209 130 158 166 198 191 58 320 331 358 325 324 313 315 328 326 320 340 340 16 9 14 339 174 358
202 199 199 207 213 210 217 223 219 210 204 208 215 209 211 222 227 220 214 208 188 193 217 248 266 299 265 293 305 311 304 308 313 307 306 307 320 351 344 357 21 231 330